Flight Track Log - Related Links

Times and Time Zones

All times are in EDT time to prevent confusion due to time zone crossing. See the SWA1223 flight status page for this flight to view local times or setup timezone preferences in your user account.

Time Position Orientation Groundspeed Altitude Reporting Facility
EDT Latitude Longitude Course Direction KTS MPH feet Rate Location/Type
Thu 04:14:35 PM 33.4333 -112.0167 270° West 151 174 1,800  Level Phoenix TRACON
Thu 04:15:30 PM 33.4333 -112.0833 270° West 193 222 3,300 1,794 Climbing Phoenix TRACON
Thu 04:16:12 PM 33.4367 -112.1258 275° West 211 243 4,700 1,962 Climbing Albuquerque Center
Thu 04:17:14 PM 33.4961 -112.1569 336° Northwest 280 322 6,700 2,208 Climbing Albuquerque Center
Thu 04:18:17 PM 33.5544 -112.0892 44° Northeast 297 342 9,300 2,448 Climbing Albuquerque Center
Thu 04:19:19 PM 33.5706 -111.9864 79° East 318 366 11,800 2,565 Climbing Albuquerque Center
Thu 04:20:21 PM 33.5908 -111.8683 78° East 362 417 14,600 2,710 Climbing Albuquerque Center
Thu 04:21:23 PM 33.6156 -111.7189 79° East 384 442 17,400 2,565 Climbing Albuquerque Center
Thu 04:22:25 PM 33.6378 -111.5819 79° East 417 480 19,900 1,984 Climbing Albuquerque Center
Thu 04:23:27 PM 33.6608 -111.4375 79° East 444 511 21,500 1,742 Climbing Albuquerque Center
Thu 04:24:29 PM 33.6861 -111.2833 79° East 473 544 23,500 2,032 Climbing Albuquerque Center
Thu 04:25:31 PM 33.7372 -111.1331 68° East 489 563 25,700 2,129 Climbing Albuquerque Center
Thu 04:26:33 PM 33.8014 -110.9481 67° East 502 578 27,900 1,790 Climbing Albuquerque Center
Thu 04:27:35 PM 33.8575 -110.7919 67° East 509 586 29,400 1,403 Climbing Albuquerque Center
Thu 04:28:37 PM 33.9122 -110.6308 68° East 518 596 30,800 1,500 Climbing Albuquerque Center
Thu 04:29:39 PM 33.9706 -110.4669 67° East 528 608 32,500 1,839 Climbing Albuquerque Center
Thu 04:30:41 PM 34.0375 -110.2753 67° East 530 610 34,600 1,452 Climbing Albuquerque Center
Thu 04:31:43 PM 34.0936 -110.1161 67° East 522 601 35,500 919 Climbing Albuquerque Center
Thu 04:32:45 PM 34.1500 -109.9531 67° East 525 604 36,500 720 Climbing Albuquerque Center
Thu 04:33:48 PM 34.2117 -109.7711 68° East 526 605 37,000 240 Climbing Albuquerque Center
Thu 04:34:50 PM 34.2644 -109.6161 68° East 523 602 37,000  Level Albuquerque Center
Thu 04:35:52 PM 34.3261 -109.4361 67° East 521 600 37,000  Level Albuquerque Center
Thu 04:36:54 PM 34.3775 -109.2806 68° East 521 600 37,000  Level Albuquerque Center
Thu 04:37:56 PM 34.4372 -109.1025 68° East 516 594 37,000  Level Albuquerque Center
Thu 04:38:58 PM 34.4797 -108.9469 72° East 511 588 37,000  Level Albuquerque Center
Thu 04:40:00 PM 34.5289 -108.7656 72° East 509 586 37,000  Level Albuquerque Center
Thu 04:41:02 PM 34.5717 -108.6117 71° East 508 585 37,000  Level Albuquerque Center
Thu 04:42:04 PM 34.6153 -108.4514 72° East 510 587 37,000  Level Albuquerque Center
Thu 04:43:06 PM 34.6581 -108.2892 72° East 508 585 37,000  Level Albuquerque Center
Thu 04:44:08 PM 34.7025 -108.1261 72° East 509 586 37,000  Level Albuquerque Center
Thu 04:45:10 PM 34.7550 -107.9289 72° East 511 588 37,000  Level Albuquerque Center
Thu 04:46:12 PM 34.7983 -107.7644 72° East 512 589 37,000  Level Albuquerque Center
Thu 04:47:14 PM 34.8433 -107.5975 72° East 516 594 37,000  Level Albuquerque Center
Thu 04:48:16 PM 34.8864 -107.4297 73° East 520 598 37,000  Level Albuquerque Center
Thu 04:49:18 PM 34.9303 -107.2622 72° East 520 598 37,000  Level Albuquerque Center
Thu 04:51:23 PM 35.0239 -106.8975 73° East 514 592 37,000  Level Albuquerque Center
Thu 04:52:25 PM 35.0686 -106.7450 70° East 505 581 37,000  Level Albuquerque Center
Thu 04:53:27 PM 35.1389 -106.5678 64° Northeast 514 592 37,000  Level Albuquerque Center
Thu 04:54:29 PM 35.1994 -106.3994 66° East 517 595 37,000  Level Albuquerque Center
Thu 04:55:31 PM 35.2581 -106.2411 66° East 514 592 37,000  Level Albuquerque Center
Thu 04:56:33 PM 35.3167 -106.0778 66° East 509 586 37,000  Level Albuquerque Center
Thu 04:57:35 PM 35.3739 -105.9225 66° East 517 595 37,000  Level Albuquerque Center
Thu 04:58:37 PM 35.4383 -105.7547 65° Northeast 518 596 37,000  Level Albuquerque Center
Thu 04:59:39 PM 35.4947 -105.5953 66° East 509 586 37,000  Level Albuquerque Center
Thu 05:01:00 PM 35.5530 -105.3829 64° Northeast  Level FlightAware Approximate
Thu 05:01:43 PM 35.6156 -105.2508 64° Northeast 503 579 37,000  Level Albuquerque Center
Thu 05:02:45 PM 35.6731 -105.0881 66° East 509 586 37,000  Level Albuquerque Center
Thu 05:03:47 PM 35.7306 -104.9242 67° East 513 590 37,000  Level Albuquerque Center
Thu 05:04:49 PM 35.7897 -104.7606 66° East 516 594 37,000  Level Albuquerque Center
Thu 05:05:52 PM 35.8486 -104.5969 66° East 516 594 37,000  Level Albuquerque Center
Thu 05:06:54 PM 35.9083 -104.4333 66° East 516 594 37,000  Level Albuquerque Center
Thu 05:07:56 PM 35.9675 -104.2706 66° East 515 593 37,000  Level Albuquerque Center
Thu 05:08:58 PM 36.0489 -104.1253 55° Northeast 504 580 37,000  Level Albuquerque Center
Thu 05:10:00 PM 36.1461 -103.9569 54° Northeast 509 586 37,000  Level Albuquerque Center
Thu 05:11:02 PM 36.2292 -103.8136 54° Northeast 507 583 37,000  Level Albuquerque Center
Thu 05:12:04 PM 36.3122 -103.6692 54° Northeast 509 586 37,000  Level Albuquerque Center
Thu 05:13:06 PM 36.3944 -103.5233 55° Northeast 509 586 37,000  Level Albuquerque Center
Thu 05:14:08 PM 36.4764 -103.3803 55° Northeast 507 583 37,000  Level Albuquerque Center
Thu 05:15:10 PM 36.5578 -103.2347 55° Northeast 506 582 37,000  Level Albuquerque Center
Thu 05:16:12 PM 36.6411 -103.0856 55° Northeast 502 578 37,000  Level Albuquerque Center
Thu 05:17:14 PM 36.7317 -102.9261 55° Northeast 505 581 37,000  Level Albuquerque Center
Thu 05:18:16 PM 36.8078 -102.7872 56° Northeast 508 585 37,000  Level Albuquerque Center
Thu 05:19:18 PM 36.8981 -102.6247 55° Northeast 510 587 37,000  Level Albuquerque Center
Thu 05:20:20 PM 36.9792 -102.4781 55° Northeast 512 589 37,000  Level Albuquerque Center
Thu 05:21:22 PM 37.0578 -102.3389 55° Northeast 511 588 37,000  Level Albuquerque Center
Thu 05:22:25 PM 37.1464 -102.1728 56° Northeast 513 590 37,000  Level Albuquerque Center
Thu 05:23:27 PM 37.2231 -102.0322 56° Northeast 513 590 37,000  Level Albuquerque Center
Thu 05:24:29 PM 37.3125 -101.8658 56° Northeast 514 592 37,000  Level Albuquerque Center
Thu 05:25:17 PM 37.3747 -101.7461 57° Northeast 513 590 37,000  Level Kansas City Center
Thu 05:26:21 PM 37.4528 -101.6039 55° Northeast 515 593 37,000  Level Kansas City Center
Thu 05:27:21 PM 37.5422 -101.4367 56° Northeast 515 593 37,000  Level Kansas City Center
Thu 05:28:26 PM 37.6194 -101.2914 56° Northeast 518 596 37,000  Level Kansas City Center
Thu 05:29:26 PM 37.7031 -101.1333 56° Northeast 516 594 37,000  Level Kansas City Center
Thu 05:30:27 PM 37.7872 -100.9747 56° Northeast 516 594 37,000  Level Kansas City Center
Thu 05:31:31 PM 37.8661 -100.8272 56° Northeast 519 597 37,000  Level Kansas City Center
Thu 05:32:32 PM 37.9572 -100.6544 56° Northeast 523 602 37,000  Level Kansas City Center
Thu 05:33:36 PM 38.0361 -100.5119 55° Northeast 519 597 37,000  Level Kansas City Center
Thu 05:34:37 PM 38.1289 -100.3431 55° Northeast 520 598 37,000  Level Kansas City Center
Thu 05:35:37 PM 38.2072 -100.1981 55° Northeast 519 597 37,000  Level Kansas City Center
Thu 05:36:41 PM 38.2861 -100.0539 55° Northeast 519 597 37,000  Level Kansas City Center
Thu 05:37:42 PM 38.3778 -99.8833 56° Northeast 521 600 37,000  Level Kansas City Center
Thu 05:38:43 PM 38.4550 -99.7394 56° Northeast 516 594 37,000  Level Kansas City Center
Thu 05:39:47 PM 38.5467 -99.5694 55° Northeast 519 597 37,000  Level Kansas City Center
Thu 05:40:49 PM 38.6269 -99.4175 56° Northeast 514 592 37,000  Level Kansas City Center
Thu 05:41:52 PM 38.7086 -99.2653 55° Northeast 517 595 37,000  Level Kansas City Center
Thu 05:42:52 PM 38.7919 -99.1094 56° Northeast 526 605 37,000  Level Kansas City Center
Thu 05:43:56 PM 38.8728 -98.9564 56° Northeast 518 596 37,000  Level Kansas City Center
Thu 05:44:58 PM 38.9528 -98.8036 56° Northeast 515 593 37,000  Level Kansas City Center
Thu 05:45:59 PM 39.0336 -98.6506 56° Northeast 515 593 37,000  Level Kansas City Center
Thu 05:47:02 PM 39.1281 -98.4664 56° Northeast 514 592 37,000  Level Kansas City Center
Thu 05:48:03 PM 39.2075 -98.3136 56° Northeast 512 589 37,000  Level Kansas City Center
Thu 05:49:05 PM 39.2828 -98.1644 57° Northeast 507 583 37,000  Level Kansas City Center
Thu 05:50:08 PM 39.3711 -97.9942 56° Northeast 509 586 37,000  Level Kansas City Center
Thu 05:51:08 PM 39.4483 -97.8403 57° Northeast 511 588 37,000  Level Kansas City Center
Thu 05:52:12 PM 39.5267 -97.6878 56° Northeast 511 588 37,000  Level Kansas City Center
Thu 05:53:13 PM 39.6036 -97.5350 57° Northeast 507 583 37,000  Level Kansas City Center
Thu 05:53:39 PM 39.6475 -97.4478 57° Northeast 510 587 37,000  Level Minneapolis Center
Thu 05:54:53 PM 39.7250 -97.2900 57° Northeast 511 588 37,000  Level Minneapolis Center
Thu 05:55:55 PM 39.8181 -97.1067 57° Northeast 511 588 37,000  Level Minneapolis Center
Thu 05:56:20 PM 39.8492 -97.0397 59° Northeast 511 588 37,000  Level Kansas City Center
Thu 05:56:57 PM 39.8944 -96.9489 57° Northeast 511 588 37,000  Level Minneapolis Center
Thu 05:58:11 PM 39.9714 -96.7936 57° Northeast 511 588 37,000 569 Level Minneapolis Center
Thu 05:59:14 PM 40.0611 -96.6069 58° Northeast 512 589 38,300 960 Climbing Minneapolis Center
Thu 06:00:16 PM 40.1517 -96.4200 58° Northeast 510 587 39,000 339 Climbing Minneapolis Center
Thu 06:01:18 PM 40.2281 -96.2656 57° Northeast 508 585 39,000  Level Minneapolis Center
Thu 06:02:20 PM 40.3031 -96.1086 58° Northeast 510 587 39,000  Level Minneapolis Center
Thu 06:03:22 PM 40.3767 -95.9542 58° Northeast 507 583 39,000  Level Minneapolis Center
Thu 06:04:24 PM 40.4494 -95.7972 59° Northeast 506 582 39,000  Level Minneapolis Center
Thu 06:05:26 PM 40.5381 -95.6139 58° Northeast 500 575 39,000  Level Minneapolis Center
Thu 06:06:40 PM 40.6103 -95.4600 58° Northeast 498 573 39,000  Level Minneapolis Center
Thu 06:07:43 PM 40.6972 -95.2744 58° Northeast 499 574 39,000  Level Minneapolis Center
Thu 06:08:45 PM 40.7711 -95.1175 58° Northeast 503 579 39,000  Level Minneapolis Center
Thu 06:09:47 PM 40.8439 -94.9606 58° Northeast 504 580 39,000  Level Minneapolis Center
Thu 06:10:49 PM 40.9300 -94.7719 59° Northeast 502 578 39,000  Level Minneapolis Center
Thu 06:11:51 PM 41.0022 -94.6144 59° Northeast 503 579 39,000  Level Minneapolis Center
Thu 06:12:53 PM 41.0669 -94.4703 59° Northeast 502 578 39,000  Level Minneapolis Center
Thu 06:13:55 PM 41.1444 -94.2994 59° Northeast 499 574 39,000  Level Minneapolis Center
Thu 06:14:57 PM 41.2233 -94.1264 59° Northeast 497 572 39,000  Level Minneapolis Center
Thu 06:16:00 PM 41.2925 -93.9717 59° Northeast 492 566 39,000  Level Minneapolis Center
Thu 06:17:02 PM 41.3628 -93.8161 59° Northeast 493 567 39,000  Level Minneapolis Center
Thu 06:18:03 PM 41.4167 -93.6936 60° Northeast 488 562 39,000  Level Minneapolis Center
Thu 06:19:06 PM 41.4542 -93.4747 77° East 509 586 39,000  Level Minneapolis Center
Thu 06:20:08 PM 41.4764 -93.2522 82° East 510 587 39,000  Level Minneapolis Center
Thu 06:21:10 PM 41.4933 -93.0675 83° East 507 583 39,000  Level Minneapolis Center
Thu 06:22:12 PM 41.5075 -92.9192 83° East 505 581 39,000  Level Minneapolis Center
Thu 06:23:14 PM 41.5269 -92.6958 83° East 507 583 39,000  Level Minneapolis Center
Thu 06:24:01 PM 41.5406 -92.5425 83° East 508 585 39,000  Level Chicago Center
Thu 06:25:03 PM 41.5569 -92.3561 83° East 509 586 39,000  Level Chicago Center
Thu 06:26:05 PM 41.5736 -92.1692 83° East 512 589 39,000  Level Chicago Center
Thu 06:27:07 PM 41.5922 -91.9431 84° East 516 594 39,000  Level Chicago Center
Thu 06:28:09 PM 41.6075 -91.7558 84° East 516 594 39,000  Level Chicago Center
Thu 06:29:11 PM 41.6233 -91.5672 84° East 516 594 39,000  Level Chicago Center
Thu 06:30:13 PM 41.6375 -91.3792 84° East 516 594 39,000  Level Chicago Center
Thu 06:31:16 PM 41.6525 -91.1892 84° East 520 598 39,000  Level Chicago Center
Thu 06:32:18 PM 41.6700 -90.9614 84° East 520 598 39,000  Level Chicago Center
Thu 06:33:20 PM 41.6833 -90.7714 85° East 519 597 39,000  Level Chicago Center
Thu 06:34:22 PM 41.6972 -90.5850 84° East 519 597 39,000  Level Chicago Center
Thu 06:35:24 PM 41.7103 -90.3942 85° East 516 594 39,000  Level Chicago Center
Thu 06:36:26 PM 41.7231 -90.2028 85° East 513 590 39,000  Level Chicago Center
Thu 06:37:28 PM 41.7394 -89.9731 84° East 513 590 39,000  Level Chicago Center
Thu 06:38:30 PM 41.7517 -89.7842 85° East 509 586 39,000  Level Chicago Center
Thu 06:39:32 PM 41.7633 -89.5964 85° East 506 582 39,000  Level Chicago Center
Thu 06:41:00 PM 41.7774 -89.3353 86° East  Level FlightAware Approximate
Thu 06:41:36 PM 41.7881 -89.1933 86° East 510 587 39,000  Level Chicago Center
Thu 06:42:38 PM 41.7975 -89.0022 86° East 515 593 39,000  Level Chicago Center
Thu 06:43:41 PM 41.8078 -88.8106 86° East 518 596 39,000  Level Chicago Center
Thu 06:44:43 PM 41.8192 -88.6189 85° East 516 594 39,000  Level Chicago Center
Thu 06:45:45 PM 41.8289 -88.4297 86° East 510 587 39,000  Level Chicago Center
Thu 06:46:47 PM 41.8408 -88.2006 86° East 510 587 39,000  Level Chicago Center
Thu 06:47:49 PM 41.8494 -88.0119 86° East 506 582 39,000  Level Chicago Center
Thu 06:48:51 PM 41.8589 -87.8194 86° East 513 590 39,000  Level Chicago Center
Thu 06:49:53 PM 41.8681 -87.6289 86° East 512 589 39,000  Level Chicago Center
Thu 06:50:55 PM 41.8756 -87.4392 87° East 512 589 39,000  Level Chicago Center
Thu 06:51:57 PM 41.8853 -87.2508 86° East 508 585 39,000  Level Chicago Center
Thu 06:52:59 PM 41.8931 -87.0617 87° East 509 586 39,000  Level Chicago Center
Thu 06:54:01 PM 41.9022 -86.8344 87° East 510 587 39,000  Level Chicago Center
Thu 06:55:04 PM 41.9072 -86.6422 88° East 512 589 39,000  Level Chicago Center
Thu 06:56:06 PM 41.9150 -86.4525 87° East 508 585 39,000  Level Chicago Center
Thu 06:57:08 PM 41.9206 -86.2611 88° East 510 587 39,000  Level Chicago Center
Thu 06:59:12 PM 41.9325 -85.8819 87° East 507 583 39,000  Level Chicago Center
Thu 07:00:16 PM 41.9392 -85.6542 88° East 505 581 39,000  Level Chicago Center
Thu 07:01:18 PM 41.9447 -85.4644 88° East 503 579 39,000  Level Chicago Center
Thu 07:02:26 PM 41.9522 -85.2606 87° East 515 593 39,000  Level Cleveland Center
Thu 07:03:27 PM 41.9533 -85.0733 89° East 510 587 39,000  Level Cleveland Center
Thu 07:04:26 PM 41.9519 -84.8889 91° East 505 581 39,000  Level Cleveland Center
Thu 07:05:26 PM 41.9506 -84.7044 91° East 500 575 39,000  Level Cleveland Center
Thu 07:06:26 PM 41.9486 -84.5172 91° East 494 568 39,000  Level Cleveland Center
Thu 07:07:26 PM 41.9467 -84.3272 91° East 499 574 39,000  Level Cleveland Center
Thu 07:08:26 PM 41.9428 -84.1258 91° East 499 574 39,000  Level Cleveland Center
Thu 07:09:26 PM 41.9400 -83.9358 91° East 504 580 39,000  Level Cleveland Center
Thu 07:10:26 PM 41.9350 -83.7486 92° East 504 580 39,000  Level Cleveland Center
Thu 07:11:26 PM 41.9339 -83.5614 90° East 499 574 39,000  Level Cleveland Center
Thu 07:12:26 PM 41.9322 -83.3772 91° East 499 574 39,000  Level Cleveland Center
Thu 07:13:26 PM 41.9314 -83.2292 90° East 499 574 39,000  Level Cleveland Center
Thu 07:14:26 PM 41.9297 -83.0253 91° East 494 568 39,000  Level Cleveland Center
Thu 07:15:27 PM 41.9294 -82.8383 90° East 494 568 39,000  Level Cleveland Center
Thu 07:16:26 PM 41.9267 -82.6569 91° East 494 568 39,000  Level Cleveland Center
Thu 07:17:26 PM 41.9236 -82.4697 91° East 499 574 39,000  Level Cleveland Center
Thu 07:18:27 PM 41.9222 -82.2828 91° East 499 574 39,000  Level Cleveland Center
Thu 07:19:26 PM 41.9208 -82.1011 91° East 499 574 39,000  Level Cleveland Center
Thu 07:20:26 PM 41.9189 -81.9142 91° East 494 568 39,000  Level Cleveland Center
Thu 07:21:27 PM 41.9083 -81.7300 94° East 500 575 39,000  Level Cleveland Center
Thu 07:22:26 PM 41.8914 -81.5258 96° East 500 575 39,000  Level Cleveland Center
Thu 07:23:26 PM 41.8719 -81.3444 98° East 500 575 39,000  Level Cleveland Center
Thu 07:24:26 PM 41.8564 -81.1603 96° East 500 575 39,000  Level Cleveland Center
Thu 07:25:26 PM 41.8383 -80.9761 97° East 500 575 39,000  Level Cleveland Center
Thu 07:26:26 PM 41.8222 -80.7922 97° East 500 575 39,000  Level Cleveland Center
Thu 07:27:27 PM 41.8017 -80.6111 99° East 500 575 39,000  Level Cleveland Center
Thu 07:28:26 PM 41.7847 -80.4272 97° East 500 575 39,000  Level Cleveland Center
Thu 07:29:26 PM 41.7678 -80.2631 98° East 500 575 39,000  Level Cleveland Center
Thu 07:30:26 PM 41.7483 -80.0767 98° East 500 575 39,000  Level Cleveland Center
Thu 07:31:26 PM 41.7308 -79.8958 97° East 500 575 39,000  Level Cleveland Center
Thu 07:32:26 PM 41.7108 -79.7125 98° East 500 575 39,000  Level Cleveland Center
Thu 07:33:26 PM 41.6903 -79.5069 98° East 500 575 39,000  Level Cleveland Center
Thu 07:34:26 PM 41.6694 -79.3211 98° East 500 575 39,000  Level Cleveland Center
Thu 07:35:26 PM 41.6486 -79.1353 98° East 500 575 39,000  Level Cleveland Center
Thu 07:36:26 PM 41.6272 -78.9469 99° East 500 575 39,000  Level Cleveland Center
Thu 07:37:26 PM 41.6078 -78.7642 98° East 500 575 39,000 -200 Level Cleveland Center
Thu 07:38:26 PM 41.5861 -78.5761 99° East 500 575 38,600 -1,350 Descending Cleveland Center
Thu 07:39:26 PM 41.5658 -78.3933 98° East 500 575 36,300 -2,324 Descending Cleveland Center
Thu 07:40:17 PM 41.5483 -78.2500 99° East 497 572 34,300 -2,236 Descending New York Center
Thu 07:41:16 PM 41.5258 -78.0756 100° East 486 559 32,200 -1,664 Descending New York Center
Thu 07:42:16 PM 41.5050 -77.9042 99° East 481 554 31,000 -595 Descending New York Center
Thu 07:43:17 PM 41.4794 -77.7381 102° East 468 539 31,000  Level New York Center
Thu 07:44:17 PM 41.4556 -77.5750 101° East 455 524 31,000  Level New York Center
Thu 07:45:15 PM 41.4319 -77.4039 100° East 455 524 31,000 -102 Level New York Center
Thu 07:46:15 PM 41.4056 -77.2381 102° East 455 524 30,800 -149 Descending New York Center
Thu 07:47:16 PM 41.3811 -77.0753 101° East 455 524 30,700 -1,150 Descending New York Center
Thu 07:48:15 PM 41.3567 -76.9069 101° East 455 524 28,500 -2,067 Descending New York Center
Thu 07:49:15 PM 41.3314 -76.7500 102° East 455 524 26,600 -1,884 Descending New York Center
Thu 07:50:16 PM 41.2908 -76.6000 110° East 442 509 24,700 -1,820 Descending New York Center
Thu 07:51:17 PM 41.2519 -76.4586 110° East 421 484 22,900 -1,736 Descending New York Center
Thu 07:52:17 PM 41.2144 -76.3231 110° East 402 463 21,200 -1,678 Descending New York Center
Thu 07:53:15 PM 41.1825 -76.2047 110° East 387 445 19,600 -1,261 Descending New York Center
Thu 07:54:16 PM 41.1417 -76.0472 109° East 395 455 18,700 -893 Descending New York Center
Thu 07:55:16 PM 41.1058 -75.9175 110° East 407 468 17,800 -942 Descending New York Center
Thu 07:56:17 PM 41.0625 -75.7603 110° East 407 468 16,800 -1,488 Descending New York Center
Thu 07:57:17 PM 41.0244 -75.6228 110° East 407 468 14,800 -1,576 Descending New York Center
Thu 07:58:15 PM 40.9883 -75.4881 110° East 390 449 13,700 -1,300 Descending New York Center
Thu 07:59:17 PM 40.9553 -75.3731 111° Southeast 377 434 12,200 -1,525 Descending New York Center
Thu 08:00:17 PM 40.9183 -75.2497 112° Southeast 372 428 10,600 -1,271 Descending New York Center
Thu 08:01:15 PM 40.8875 -75.1269 108° East 334 384 9,700 -1,169 Descending New York Center
Thu 08:02:15 PM 40.8556 -75.0289 113° Southeast 305 351 8,300 -1,339 Descending New York Center
Thu 08:03:16 PM 40.8303 -74.9258 108° East 294 338 7,000 -750 Descending New York Center
Thu 08:04:15 PM 40.7908 -74.8578 127° Southeast 270 311 6,800 -500 Descending New York Center
Thu 08:05:16 PM 40.7247 -74.8456 172° South 222 255 6,000 -400 Descending New York Center
Thu 08:06:15 PM 40.6933 -74.7833 124° Southeast 217 250 6,000  Level New York Center
Thu 08:07:16 PM 40.6589 -74.6994 118° Southeast 231 266 6,000  Level New York Center
Thu 08:08:15 PM 40.6756 -74.6319 72° East 216 249 6,000 77 Level New York Center
Thu 08:08:34 PM 40.7000 -74.6167 25° Northeast 234 269 6,100 82 Climbing New York TRACON
Thu 08:09:28 PM 40.7500 -74.5667 37° Northeast 233 268 6,100  Level New York TRACON
Thu 08:10:28 PM 40.8000 -74.5500 14° North 227 261 6,100  Level New York TRACON
Thu 08:11:28 PM 40.8667 -74.5667 349° North 228 262 6,100 -56 Level New York TRACON
Thu 08:12:15 PM 40.9069 -74.5600 North 229 264 6,000 -444 Descending New York Center
Thu 08:13:16 PM 40.9761 -74.5472 North 229 264 5,300 -496 Descending New York Center
Thu 08:14:16 PM 41.0256 -74.5061 32° Northeast 224 258 5,000 -63 Descending New York Center
Thu 08:16:28 PM 41.0667 -74.3667 69° East 216 249 5,100 31 Climbing New York TRACON
Thu 08:17:28 PM 41.0333 -74.3000 124° Southeast 225 259 5,100 -350 Level New York TRACON
Thu 08:18:28 PM 41.0000 -74.2333 124° Southeast 224 258 4,400 -500 Descending New York TRACON
Thu 08:19:28 PM 40.9667 -74.1667 123° Southeast 225 259 4,100 -579 Descending New York TRACON
Thu 08:20:22 PM 40.9167 -74.1167 143° Southeast 220 253 3,300 -700 Descending New York TRACON
Thu 08:21:28 PM 40.8667 -74.0833 153° Southeast 197 227 2,700 -381 Descending New York TRACON
Thu 08:22:28 PM 40.8167 -74.0833 180° South 186 214 2,500 -500 Descending New York TRACON
Thu 08:23:28 PM 40.7667 -74.1167 207° Southwest 158 182 1,700 -800 Descending New York TRACON
Thu 08:24:28 PM 40.7333 -74.1333 201° Southwest 128 147 900 -800 Descending New York TRACON

Login

Don't have an account? Register now (free) for customized features, flight alerts, and more!